When you browse on this site, cookies collect data to enhance your experience and personalize the content and advertising you see.
Visit our Privacy Policy to learn more. By continuing to use the site, you agree to this use of cookies and data.
  • In United Kingdom
  • List of Countries
  • For 7 days
  • Water Temperature
  • Weather Map
  • Weather Widgets
  • user-avatar
    Login

    Hourly Weather Melbourne

    Today, 18 August, Sunday

    Time Temperature Precipitation Wind Pressure Humidity
    00:00 +10°C° 0 mm 4 mps 760 mmHg 76%
    01:00 +9°C° 0 mm 5 mps 759 mmHg 74%
    02:00 +9°C° 0 mm 5 mps 758 mmHg 70%
    03:00 +9°C° 0 mm 6 mps 757 mmHg 66%
    04:00 +10°C° 0 mm 7 mps 757 mmHg 61%
    05:00 +10°C° 0 mm 7 mps 756 mmHg 61%
    06:00 +10°C° 0 mm 7 mps 756 mmHg 61%
    07:00 +10°C° 0 mm 7 mps 755 mmHg 61%
    08:00 +12°C° 0 mm 8 mps 755 mmHg 59%
    09:00 +13°C° 0 mm 8 mps 754 mmHg 56%
    10:00 +16°C° 0 mm 10 mps 753 mmHg 50%
    11:00 +16°C° 0 mm 9 mps 753 mmHg 50%
    12:00 +17°C° 0 mm 8 mps 752 mmHg 49%
    13:00 +17°C° 0 mm 6 mps 751 mmHg 48%
    14:00 +15°C° 0.5 mm 7 mps 751 mmHg 58%
    15:00 +12°C° 0.5 mm 7 mps 751 mmHg 67%
    16:00 +10°C° 0.5 mm 7 mps 751 mmHg 76%
    17:00 +9°C° 0.2 mm 7 mps 751 mmHg 74%
    18:00 +8°C° 0.2 mm 7 mps 752 mmHg 72%
    19:00 +8°C° 0.2 mm 7 mps 752 mmHg 71%
    20:00 +6°C° 0 mm 7 mps 753 mmHg 72%
    21:00 +6°C° 0 mm 7 mps 753 mmHg 73%
    22:00 +5°C° 0 mm 7 mps 754 mmHg 75%
    23:00 +5°C° 0.4 mm 7 mps 754 mmHg 78%

    Tomorrow, 19 August, Monday

    Time Temperature Precipitation Wind Pressure Humidity
    00:00 +5°C° 0.4 mm 7 mps 755 mmHg 81%
    01:00 +5°C° 0.4 mm 7 mps 756 mmHg 84%
    02:00 +4°C° 0.2 mm 7 mps 756 mmHg 82%
    03:00 +4°C° 0.2 mm 7 mps 757 mmHg 80%
    04:00 +4°C° 0.2 mm 7 mps 757 mmHg 78%
    05:00 +4°C° 0.1 mm 6 mps 758 mmHg 78%
    06:00 +3°C° 0.1 mm 6 mps 759 mmHg 77%
    07:00 +3°C° 0.1 mm 6 mps 759 mmHg 77%
    08:00 +4°C° 0.1 mm 6 mps 760 mmHg 73%
    09:00 +5°C° 0.1 mm 7 mps 761 mmHg 70%
    10:00 +6°C° 0.1 mm 7 mps 761 mmHg 66%
    11:00 +8°C° 0.1 mm 7 mps 762 mmHg 62%
    12:00 +9°C° 0.1 mm 7 mps 762 mmHg 58%
    13:00 +10°C° 0.1 mm 7 mps 762 mmHg 53%
    14:00 +10°C° 0.2 mm 7 mps 763 mmHg 56%
    15:00 +9°C° 0.2 mm 6 mps 763 mmHg 58%
    16:00 +9°C° 0.2 mm 6 mps 763 mmHg 60%
    17:00 +8°C° 0 mm 6 mps 764 mmHg 64%
    18:00 +8°C° 0 mm 5 mps 764 mmHg 68%
    19:00 +7°C° 0 mm 5 mps 765 mmHg 72%
    20:00 +7°C° 0 mm 5 mps 765 mmHg 73%
    21:00 +7°C° 0 mm 5 mps 766 mmHg 74%
    22:00 +7°C° 0 mm 5 mps 766 mmHg 75%
    23:00 +7°C° 0 mm 5 mps 766 mmHg 74%

    Day after tomorrow, 20 August, Tuesday

    Time Temperature Precipitation Wind Pressure Humidity
    00:00 +7°C° 0 mm 5 mps 766 mmHg 74%
    01:00 +8°C° 0 mm 5 mps 766 mmHg 73%
    02:00 +8°C° 0 mm 5 mps 766 mmHg 74%
    03:00 +7°C° 0 mm 5 mps 766 mmHg 75%
    04:00 +7°C° 0 mm 5 mps 765 mmHg 76%
    05:00 +7°C° 0 mm 5 mps 765 mmHg 77%
    06:00 +7°C° 0 mm 5 mps 766 mmHg 77%
    07:00 +7°C° 0 mm 5 mps 766 mmHg 78%
    08:00 +8°C° 0 mm 5 mps 766 mmHg 74%
    09:00 +9°C° 0 mm 5 mps 766 mmHg 71%
    10:00 +10°C° 0 mm 5 mps 766 mmHg 68%
    11:00 +12°C° 0 mm 5 mps 765 mmHg 67%
    12:00 +11°C° 0 mm 6 mps 765 mmHg 67%
    13:00 +13°C° 0 mm 6 mps 764 mmHg 66%
    14:00 +13°C° 0 mm 6 mps 764 mmHg 67%
    15:00 +13°C° 0 mm 6 mps 763 mmHg 67%
    16:00 +13°C° 0 mm 6 mps 762 mmHg 68%
    17:00 +13°C° 0 mm 6 mps 762 mmHg 69%
    18:00 +13°C° 0 mm 5 mps 762 mmHg 70%
    19:00 +12°C° 0 mm 5 mps 762 mmHg 71%
    20:00 +12°C° 0.1 mm 5 mps 762 mmHg 73%
    21:00 +11°C° 0.1 mm 6 mps 762 mmHg 74%
    22:00 +10°C° 0.1 mm 6 mps 762 mmHg 76%
    23:00 +10°C° 0.1 mm 6 mps 761 mmHg 77%

    21 August, Wednesday

    Time Temperature Precipitation Wind Pressure Humidity
    00:00 +10°C° 0.1 mm 6 mps 761 mmHg 77%
    01:00 +11°C° 0.1 mm 6 mps 760 mmHg 77%
    02:00 +11°C° 0.1 mm 6 mps 760 mmHg 77%
    03:00 +11°C° 0.1 mm 6 mps 760 mmHg 78%
    04:00 +11°C° 0.1 mm 6 mps 759 mmHg 79%
    05:00 +10°C° 0.5 mm 6 mps 760 mmHg 80%
    06:00 +10°C° 0.5 mm 6 mps 760 mmHg 81%
    07:00 +10°C° 0.5 mm 6 mps 760 mmHg 82%
    08:00 +11°C° 0.1 mm 7 mps 760 mmHg 77%
    09:00 +11°C° 0.1 mm 7 mps 761 mmHg 72%
    10:00 +11°C° 0.1 mm 8 mps 761 mmHg 68%
    11:00 +12°C° 0.1 mm 8 mps 761 mmHg 64%
    12:00 +12°C° 0.1 mm 8 mps 761 mmHg 61%
    13:00 +12°C° 0.1 mm 7 mps 762 mmHg 58%
    14:00 +11°C° 0 mm 7 mps 762 mmHg 58%
    15:00 +11°C° 0 mm 7 mps 762 mmHg 58%
    16:00 +11°C° 0 mm 6 mps 762 mmHg 58%
    17:00 +10°C° 0 mm 6 mps 762 mmHg 59%
    18:00 +9°C° 0 mm 6 mps 763 mmHg 61%
    19:00 +9°C° 0 mm 6 mps 763 mmHg 63%
    20:00 +9°C° 0 mm 6 mps 763 mmHg 65%
    21:00 +8°C° 0 mm 6 mps 763 mmHg 68%
    22:00 +8°C° 0 mm 6 mps 763 mmHg 70%
    23:00 +8°C° 0 mm 6 mps 763 mmHg 71%

    22 August, Thursday

    Time Temperature Precipitation Wind Pressure Humidity
    00:00 +9°C° 0 mm 5 mps 763 mmHg 72%
    01:00 +9°C° 0 mm 5 mps 763 mmHg 73%
    02:00 +9°C° 0.2 mm 5 mps 763 mmHg 77%
    03:00 +9°C° 0.2 mm 5 mps 763 mmHg 80%
    04:00 +10°C° 0.2 mm 5 mps 762 mmHg 83%
    05:00 +9°C° 0.2 mm 5 mps 763 mmHg 83%
    06:00 +9°C° 0.2 mm 5 mps 764 mmHg 82%
    07:00 +9°C° 0.2 mm 5 mps 764 mmHg 81%
    08:00 +10°C° 0.1 mm 5 mps 765 mmHg 78%
    09:00 +10°C° 0.1 mm 5 mps 765 mmHg 75%
    10:00 +12°C° 0.1 mm 4 mps 766 mmHg 72%
    11:00 +12°C° 0 mm 4 mps 766 mmHg 69%
    12:00 +12°C° 0 mm 4 mps 765 mmHg 66%
    13:00 +13°C° 0 mm 4 mps 765 mmHg 63%
    14:00 +13°C° 0 mm 4 mps 765 mmHg 66%
    15:00 +12°C° 0 mm 3 mps 765 mmHg 68%
    16:00 +12°C° 0 mm 3 mps 765 mmHg 70%
    17:00 +12°C° 0 mm 3 mps 766 mmHg 75%
    18:00 +12°C° 0 mm 2 mps 766 mmHg 79%
    19:00 +12°C° 0 mm 2 mps 767 mmHg 84%
    20:00 +10°C° 0 mm 2 mps 767 mmHg 85%
    21:00 +10°C° 0 mm 3 mps 767 mmHg 86%
    22:00 +9°C° 0 mm 3 mps 767 mmHg 87%
    23:00 +9°C° 0 mm 3 mps 767 mmHg 87%

    23 August, Friday

    Time Temperature Precipitation Wind Pressure Humidity
    00:00 +8°C° 0 mm 2 mps 767 mmHg 86%
    01:00 +8°C° 0 mm 2 mps 767 mmHg 86%
    02:00 +7°C° 0 mm 2 mps 766 mmHg 86%
    03:00 +7°C° 0 mm 2 mps 766 mmHg 86%
    04:00 +7°C° 0 mm 2 mps 766 mmHg 87%
    05:00 +7°C° 0 mm 2 mps 766 mmHg 86%
    06:00 +6°C° 0 mm 2 mps 766 mmHg 86%
    07:00 +6°C° 0 mm 2 mps 766 mmHg 85%
    08:00 +8°C° 0 mm 3 mps 766 mmHg 78%
    09:00 +10°C° 0 mm 3 mps 766 mmHg 70%
    10:00 +11°C° 0 mm 3 mps 765 mmHg 63%
    11:00 +13°C° 0 mm 4 mps 765 mmHg 60%
    12:00 +14°C° 0 mm 4 mps 764 mmHg 57%
    13:00 +15°C° 0 mm 4 mps 763 mmHg 54%
    14:00 +15°C° 0 mm 5 mps 762 mmHg 55%
    15:00 +15°C° 0 mm 5 mps 762 mmHg 57%
    16:00 +14°C° 0 mm 6 mps 762 mmHg 58%
    17:00 +14°C° 0 mm 5 mps 762 mmHg 60%
    18:00 +13°C° 0 mm 5 mps 762 mmHg 61%
    19:00 +13°C° 0 mm 4 mps 762 mmHg 63%
    20:00 +13°C° 0 mm 5 mps 762 mmHg 64%
    21:00 +13°C° 0 mm 5 mps 761 mmHg 65%
    22:00 +13°C° 0 mm 5 mps 761 mmHg 67%
    23:00 +12°C° 0 mm 5 mps 761 mmHg 69%
    Show more